Regional Weather Roundup
Issued by NWS

Home | Current Version | Previous Version | Graphics & Text | Print | Product List | Glossary On
Versions: 1 2 3 4 5 6 7 8 9 10 11 12 13 14 15 16 17 18 19 20 21 22 23 24 25 26 27 28 29 30 31 32 33 34 35 36 37 38 39 40 41 42 43 44 45 46 47 48 49 50
000
ASUS43 KMKX 060821
RWRWI

WISCONSIN REGIONAL WEATHER ROUNDUP
NATIONAL WEATHER SERVICE MILWAUKEE/SULLIVAN WI
200 AM CST TUE DEC 06 2016

NOTE: "FAIR" INDICATES FEW OR NO CLOUDS BELOW 12,000 FEET WITH NO
SIGNIFICANT WEATHER AND/OR OBSTRUCTIONS TO VISIBILITY.

WIZ001-002-006>008-014>016-023>028-060900-
NORTHWEST WISCONSIN

CITY           SKY/WX    TMP DP  RH WIND       PRES   REMARKS
SUPERIOR ARPT  CLOUDY    37  34  87 S13G23    29.60S WCI  29
ASHLAND        CLOUDY    37  30  75 MISG      29.66F
HAYWARD        CLOUDY    35  30  82 S14G21    29.66S WCI  26
SIREN          CLOUDY    37  32  84 S12       29.63F WCI  29
CUMBERLAND     CLOUDY    32  32 100 S17       29.66S FOG     WCI  21
RICE LAKE      LGT SNOW  33  32  96 SE10      29.70S WCI  25
CHETEK         LGT SNOW  32  32  99 S10       29.70S WCI  24
LADYSMITH      LGT SNOW  34  31  88 S12       29.73S WCI  26
EAU CLAIRE     LGT SNOW  33  31  92 S14       29.73R FOG     WCI  23
MENOMONIE      MIX PCPN  33  33 100 SE12      29.72S WCI  24
NEW RICHMOND   CLOUDY    35  34  96 SW13      29.68R WCI  26
OSCEOLA        CLOUDY    36  31  81 SW14      29.71R WCI  27
$$

WIZ003>005-009-010-017-018-060900-
NORTH CENTRAL WISCONSIN

CITY           SKY/WX    TMP DP  RH WIND       PRES   REMARKS
MANITOWISH WTR CLOUDY    33  30  90 S13G18    29.71F WCI  23
ARBOR VITAE    CLOUDY    37  32  82 S10G16    29.73F WCI  29
WOODRUFF       CLOUDY    37  32  82 S10G16    29.73F WCI  29
RHINELANDER    CLEAR     31  29  92 SE8       29.77F WCI  23
EAGLE RIVER    PTCLDY    31  30  95 SE9       29.76S WCI  23
LAND O LAKES   CLOUDY    32  30  93 SE9       29.78S WCI  24
PHILLIPS       CLOUDY    32  29  86 S13G20    29.71S WCI  23
TOMAHAWK       PTCLDY    30  28  93 SE5       29.76F FOG     WCI  25
MEDFORD        MOCLDY    30  28  93 SE10      29.74S FOG     WCI  21
MERRILL        PTCLDY    30  30  98 SE5       29.78F FOG     WCI  26
$$

WIZ029-030-035-036-043>047-060900-
CENTRAL WISCONSIN

CITY           SKY/WX    TMP DP  RH WIND       PRES   REMARKS
WAUSAU         PTCLDY    30  29  96 SE8       29.78F WCI  22
MOSINEE        CLOUDY    30  30 100 SE8       29.80S FOG     WCI  23
MARSHFIELD     CLOUDY    31  28  89 SE13      29.76F FOG     WCI  21
STEVENS POINT  PTCLDY    29  29 100 SE5       29.82S FOG     WCI  24
WAUPACA        CLOUDY    33  31  91 SE3       29.86R FOG
WAUTOMA        CLOUDY    31  30  96 SE7       29.85S WCI  24
WISC RAPIDS    CLOUDY    31  30  96 S7        29.82R WCI  24
CAMP DOUGLAS   CLOUDY    32  29  89 SE8       29.81R WCI  25
$$

WIZ011>013-019>022-031-037>040-048>050-060900-
NORTHEAST WISCONSIN

CITY           SKY/WX    TMP DP  RH WIND       PRES   REMARKS
ANTIGO         CLOUDY    30  30 100 SE13      29.81F FOG     WCI  20
SHAWANO        CLOUDY    35  32  90 S5        29.86S FOG     WCI  31
OCONTO         CLOUDY    37  35  90 S8        29.88S WCI  31
STURGEON BAY   CLOUDY    40  37  89 S12       29.89R WCI  33
GREEN BAY      CLOUDY    38  36  92 S12       29.87F WCI  30
MANITOWOC      CLOUDY    40  36  86 S13       29.90R WCI  32
APPLETON       CLOUDY    34  34 100 S14       29.84S FOG     WCI  24
CLINTONVILLE   CLOUDY    32  32 100 S6        29.86R FOG     WCI  26
OSHKOSH        CLOUDY    34  31  88 S12       29.87R FOG     WCI  25
$$

WIZ032>034-041-042-053>061-060900-
SOUTHWEST WISCONSIN

CITY           SKY/WX    TMP DP  RH WIND       PRES   REMARKS
LA CROSSE      CLOUDY    36  31  82 S14       29.79S WCI  27
SPARTA         CLOUDY    33  31  92 S9        29.81S WCI  25
VIROQUA        CLOUDY    31  31  99 S12       29.80R WCI  22
BOSCOBEL       CLOUDY    33  29  85 VRB3      29.86R
PRAIRIE DU CHI CLOUDY    32  28  85 SE7G17    29.84S WCI  26
PLATTEVILLE    CLOUDY    31  31 100 S8        29.85S WCI  23
$$

WIZ056-057-062-063-064-067-068-060900-
SOUTH CENTRAL WISCONSIN

CITY           SKY/WX    TMP DP  RH WIND       PRES   REMARKS
REEDSBURG      CLOUDY    31  29  95 S6        29.84R WCI  25
BARABOO/DELLS  CLOUDY    31  28  91 S6        29.84R WCI  25
LONE ROCK      CLOUDY    32  28  85 S6        29.87R WCI  26
MINERAL POINT  CLOUDY    32  32 100 S12       29.84R FOG     WCI  23
MADISON        CLOUDY    30  29  96 MISG      29.86S FOG
MIDDLETON      NOT AVBL
WATERTOWN      CLOUDY    31  31 100 S7        29.87F FOG     WCI  24
MONROE         FOG       32  32 100 SE9       29.83S VSB 1/2 WCI  24
JANESVILLE     FOG       32  32 100 SE8       29.85F VSB 1   WCI  25
$$

WIZ051-052-058>065-066-070>072-060900-
SOUTHEAST WISCONSIN

CITY           SKY/WX    TMP DP  RH WIND       PRES   REMARKS
MILWAUKEE      CLOUDY    37  33  85 S5        29.89F WCI  33
WAUKESHA       CLOUDY    30  30 100 S5        29.89F FOG     WCI  25
MILWAUKEE/TIMM CLOUDY    34  32  93 S6        29.90S WCI  29
RACINE         CLOUDY    38  33  82 S8        29.91S WCI  32
BURLINGTON     CLOUDY    32  32 100 CALM      29.88F FOG
KENOSHA        CLOUDY    36  33  89 SE5       29.89S WCI  32
FOND DU LAC    CLOUDY    34  30  85 MISG      29.87F
SHEBOYGAN      CLOUDY    38  34  85 S5        29.89F WCI  34
WEST BEND      CLOUDY    34  34 100 S5        29.88S WCI  30
JUNEAU         CLOUDY    31  29  94 SE13      29.87F FOG     WCI  21
$$

LSZ147-162-060900-
LAKE SUPERIOR

STATION/POSITION TIME  TEMP    WIND        PRES    WAVE
                       AIR SEA DIR/SP/G            HT/PER
                 (UTC) (F)     (DEG/KT/KT) (MB)    (FT/S)
DEVILS ISLAND    0800   40     160/ 12/ 16 1004.7F
PORT WING        0740   38     150/  9/ 14 1003.7F
SAXON HARBOR     0740   40     180/  6/ 16 1004.7F
$$

LMZ867-665-643>646-060900-
LAKE MICHIGAN

STATION/POSITION TIME  TEMP    WIND        PRES    WAVE
                       AIR SEA DIR/SP/G            HT/PER
                 (UTC) (F)     (DEG/KT/KT) (MB)    (FT/S)
CHAMBERS ISLAND  0740   41     180/  4/ 10 1011.9S
NORTHPORT PIER   0740   43     150/  9/ 15 1012.2F
SISTER BAY       0738   41     170/ 11/ 15   N/A
ALGOMA LAKESHORE 0751          200/ 24/ 27   N/A
KEWAUNEE LAKESHO 0754   41     180/ 19/ 23 1012.2R
SHEBOYGAN LAKESH 0800   39     160/ 19/ 21 1012.3F
PORT WASHINGTON  0730   40     160/ 14/ 18 1013.5F
MILWAUKEE LAKESH 0750   37     200/  9/ 10   N/A
KENOSHA   LAKESH 0800   39     160/ 16/ 19 1012.2
$$

TC  - TEMPERATURE IN CELSIUS
VSB - VISIBILITY IN STATUTE MILES
WCI - WIND CHILL INDEX
HX  - HEAT INDEX




USA.gov is the U.S. government's official web portal to all federal, state and local government web resources and services.